Time,TemperatureF,DewpointF,PressureIn,WindDirection,WindDirectionDegrees,WindSpeedMPH,WindSpeedGustMPH,Humidity,HourlyPrecipIn,Conditions,Clouds,dailyrainin,SoftwareType,DateUTC
2013-01-03 00:02:00,51.0,50.0,30.32,WNW,296,3.0,9.0,95,0.00,,,0.01,,2013-01-03 00:02:00,
2013-01-03 00:12:00,51.0,50.0,30.32,WNW,296,3.0,9.0,95,0.00,,,0.01,,2013-01-03 00:12:00,
2013-01-03 00:22:00,51.0,50.0,30.32,WNW,296,3.0,9.0,95,0.00,,,0.01,,2013-01-03 00:22:00,
2013-01-03 00:37:00,51.0,50.0,30.32,WNW,294,3.0,9.0,95,0.00,,,0.01,,2013-01-03 00:37:00,
2013-01-03 00:42:00,51.0,50.0,30.32,WNW,294,3.0,9.0,95,0.00,,,0.01,,2013-01-03 00:42:00,
2013-01-03 00:52:00,51.0,50.0,30.32,WNW,291,3.0,6.0,95,0.00,,,0.01,,2013-01-03 00:52:00,
2013-01-03 01:02:00,51.0,50.0,30.32,WNW,291,3.0,6.0,95,0.00,,,0.01,,2013-01-03 01:02:00,
2013-01-03 01:12:00,51.0,50.0,30.32,WNW,291,3.0,6.0,95,0.00,,,0.01,,2013-01-03 01:12:00,
2013-01-03 01:22:00,50.0,49.0,30.33,WNW,292,2.0,5.0,95,0.00,,,0.01,,2013-01-03 01:22:00,
2013-01-03 01:32:00,50.0,49.0,30.33,WNW,284,1.0,3.0,95,0.00,,,0.01,,2013-01-03 01:32:00,
2013-01-03 01:42:00,50.0,49.0,30.33,WNW,284,1.0,3.0,95,0.00,,,0.01,,2013-01-03 01:42:00,
2013-01-03 01:52:00,50.0,49.0,30.33,West,263,1.0,4.0,96,0.00,,,0.01,,2013-01-03 01:52:00,
2013-01-03 02:02:00,50.0,49.0,30.33,West,263,1.0,4.0,96,0.00,,,0.01,,2013-01-03 02:02:00,
2013-01-03 02:11:00,50.0,49.0,30.33,West,263,1.0,4.0,96,0.00,,,0.01,,2013-01-03 02:11:00,
2013-01-03 02:22:00,50.0,49.0,30.34,West,270,1.0,6.0,96,0.00,,,0.01,,2013-01-03 02:22:00,
2013-01-03 02:32:00,50.0,49.0,30.35,WNW,288,2.0,8.0,96,0.00,,,0.01,,2013-01-03 02:32:00,
2013-01-03 02:42:00,50.0,49.0,30.35,WNW,288,2.0,8.0,96,0.00,,,0.01,,2013-01-03 02:42:00,
2013-01-03 02:52:00,50.0,49.0,30.35,WNW,288,2.0,8.0,96,0.00,,,0.01,,2013-01-03 02:52:00,
2013-01-03 03:02:00,50.0,49.0,30.35,WNW,296,1.0,5.0,96,0.00,,,0.01,,2013-01-03 03:02:00,
2013-01-03 03:11:00,50.0,49.0,30.36,West,268,1.0,7.0,96,0.00,,,0.01,,2013-01-03 03:11:00,
2013-01-03 03:22:00,50.0,49.0,30.36,West,268,1.0,7.0,96,0.00,,,0.01,,2013-01-03 03:22:00,
2013-01-03 03:36:00,50.0,49.0,30.36,WNW,291,1.0,4.0,96,0.00,,,0.01,,2013-01-03 03:36:00,
2013-01-03 03:46:00,50.0,49.0,30.36,WNW,291,1.0,4.0,96,0.00,,,0.01,,2013-01-03 03:46:00,
2013-01-03 03:52:00,50.0,49.0,30.36,WNW,291,1.0,4.0,96,0.00,,,0.01,,2013-01-03 03:52:00,
2013-01-03 04:02:00,50.0,49.0,30.36,WNW,286,2.0,5.0,96,0.00,,,0.01,,2013-01-03 04:02:00,
2013-01-03 04:12:00,50.0,49.0,30.36,WNW,286,2.0,5.0,96,0.00,,,0.01,,2013-01-03 04:12:00,
2013-01-03 04:22:00,50.0,49.0,30.37,WNW,289,1.0,4.0,96,0.00,,,0.01,,2013-01-03 04:22:00,
2013-01-03 04:32:00,50.0,49.0,30.37,WNW,289,1.0,4.0,96,0.00,,,0.01,,2013-01-03 04:32:00,
2013-01-03 04:42:00,50.0,49.0,30.37,WNW,289,1.0,4.0,96,0.00,,,0.01,,2013-01-03 04:42:00,
2013-01-03 04:52:00,50.0,49.0,30.37,West,271,1.0,5.0,96,0.00,,,0.01,,2013-01-03 04:52:00,
2013-01-03 05:03:00,49.0,48.0,30.38,West,268,1.0,4.0,96,0.00,,,0.01,,2013-01-03 05:03:00,
2013-01-03 05:12:00,49.0,48.0,30.39,WNW,300,1.0,5.0,96,0.00,,,0.01,,2013-01-03 05:12:00,
2013-01-03 05:22:00,49.0,48.0,30.39,WNW,300,1.0,5.0,96,0.00,,,0.01,,2013-01-03 05:22:00,
2013-01-03 05:33:00,49.0,48.0,30.39,WNW,300,1.0,5.0,96,0.00,,,0.01,,2013-01-03 05:33:00,
2013-01-03 05:42:00,49.0,48.0,30.39,WNW,300,1.0,5.0,96,0.00,,,0.01,,2013-01-03 05:42:00,
2013-01-03 05:52:00,49.0,48.0,30.38,West,278,1.0,5.0,96,0.00,,,0.01,,2013-01-03 05:52:00,
2013-01-03 06:02:00,49.0,48.0,30.39,West,270,2.0,7.0,97,0.00,,,0.01,,2013-01-03 06:02:00,
2013-01-03 06:12:00,49.0,48.0,30.39,West,270,2.0,7.0,97,0.00,,,0.01,,2013-01-03 06:12:00,
2013-01-03 06:22:00,49.0,48.0,30.39,West,270,2.0,7.0,97,0.00,,,0.01,,2013-01-03 06:22:00,
2013-01-03 06:32:00,49.0,48.0,30.40,West,281,2.0,6.0,97,0.00,,,0.01,,2013-01-03 06:32:00,
2013-01-03 06:42:00,49.0,48.0,30.40,West,281,2.0,6.0,97,0.00,,,0.01,,2013-01-03 06:42:00,
2013-01-03 06:52:00,49.0,48.0,30.40,WNW,294,3.0,8.0,97,0.00,,,0.01,,2013-01-03 06:52:00,
2013-01-03 07:02:00,49.0,48.0,30.42,WNW,292,2.0,6.0,97,0.00,,,0.01,,2013-01-03 07:02:00,
2013-01-03 07:12:00,49.0,48.0,30.42,WNW,292,2.0,6.0,97,0.00,,,0.01,,2013-01-03 07:12:00,
2013-01-03 07:22:00,49.0,48.0,30.42,WNW,292,2.0,6.0,97,0.00,,,0.01,,2013-01-03 07:22:00,
2013-01-03 07:32:00,49.0,48.0,30.42,WNW,291,2.0,7.0,97,0.00,,,0.01,,2013-01-03 07:32:00,
2013-01-03 07:42:00,49.0,48.0,30.42,WNW,291,2.0,7.0,97,0.00,,,0.01,,2013-01-03 07:42:00,
2013-01-03 07:53:00,49.0,48.0,30.43,WNW,294,2.0,7.0,97,0.00,,,0.01,,2013-01-03 07:53:00,
2013-01-03 08:02:00,49.0,48.0,30.43,WNW,294,2.0,7.0,97,0.00,,,0.01,,2013-01-03 08:02:00,
2013-01-03 08:11:00,49.0,48.0,30.43,WNW,294,2.0,7.0,97,0.00,,,0.01,,2013-01-03 08:11:00,
2013-01-03 08:22:00,49.0,48.0,30.43,WNW,295,2.0,8.0,97,0.00,,,0.01,,2013-01-03 08:22:00,
2013-01-03 08:32:00,49.0,48.0,30.44,WNW,295,2.0,7.0,97,0.00,,,0.01,,2013-01-03 08:32:00,
2013-01-03 08:42:00,49.0,48.0,30.44,WNW,295,2.0,7.0,97,0.00,,,0.01,,2013-01-03 08:42:00,
2013-01-03 08:52:00,49.0,48.0,30.45,WNW,291,2.0,7.0,97,0.00,,,0.01,,2013-01-03 08:52:00,
2013-01-03 09:02:00,49.0,48.0,30.45,WNW,291,2.0,7.0,97,0.00,,,0.01,,2013-01-03 09:02:00,
2013-01-03 09:11:00,49.0,48.0,30.45,WNW,291,2.0,7.0,97,0.00,,,0.01,,2013-01-03 09:11:00,
2013-01-03 09:22:00,49.0,48.0,30.45,WNW,291,2.0,7.0,96,0.00,,,0.01,,2013-01-03 09:22:00,
2013-01-03 09:32:00,49.0,48.0,30.46,WNW,285,2.0,8.0,95,0.00,,,0.01,,2013-01-03 09:32:00,
2013-01-03 09:42:00,49.0,48.0,30.46,WNW,285,2.0,8.0,95,0.00,,,0.01,,2013-01-03 09:42:00,
2013-01-03 09:52:00,49.0,48.0,30.46,WNW,285,2.0,8.0,95,0.00,,,0.01,,2013-01-03 09:52:00,
2013-01-03 10:02:00,50.0,49.0,30.47,WNW,293,2.0,7.0,95,0.00,,,0.01,,2013-01-03 10:02:00,
2013-01-03 10:11:00,50.0,49.0,30.47,WNW,293,2.0,7.0,95,0.00,,,0.01,,2013-01-03 10:11:00,
2013-01-03 10:22:00,50.0,49.0,30.48,WNW,286,3.0,9.0,95,0.00,,,0.01,,2013-01-03 10:22:00,
2013-01-03 10:32:00,50.0,48.0,30.48,WNW,290,2.0,6.0,94,0.00,,,0.01,,2013-01-03 10:32:00,
2013-01-03 10:42:00,50.0,48.0,30.48,WNW,290,2.0,6.0,94,0.00,,,0.01,,2013-01-03 10:42:00,
2013-01-03 10:52:00,50.0,48.0,30.48,WNW,290,2.0,6.0,94,0.00,,,0.01,,2013-01-03 10:52:00,
2013-01-03 11:02:00,50.0,48.0,30.48,WNW,290,2.0,6.0,94,0.00,,,0.01,,2013-01-03 11:02:00,
2013-01-03 11:11:00,50.0,48.0,30.48,WNW,290,2.0,6.0,94,0.00,,,0.01,,2013-01-03 11:11:00,
2013-01-03 11:22:00,50.0,48.0,30.49,WNW,287,1.0,4.0,94,0.00,,,0.01,,2013-01-03 11:22:00,
2013-01-03 11:32:00,50.0,48.0,30.49,WNW,287,1.0,4.0,94,0.00,,,0.01,,2013-01-03 11:32:00,
2013-01-03 11:43:00,50.0,48.0,30.49,WNW,287,1.0,4.0,94,0.00,,,0.01,,2013-01-03 11:43:00,
2013-01-03 11:53:00,50.0,48.0,30.50,WNW,288,2.0,6.0,94,0.00,,,0.01,,2013-01-03 11:53:00,
2013-01-03 12:02:00,51.0,49.0,30.50,WNW,286,2.0,7.0,94,0.00,,,0.01,,2013-01-03 12:02:00,
2013-01-03 12:12:00,51.0,49.0,30.50,WNW,286,2.0,7.0,94,0.00,,,0.01,,2013-01-03 12:12:00,
2013-01-03 12:22:00,51.0,49.0,30.50,WNW,292,3.0,7.0,93,0.00,,,0.01,,2013-01-03 12:22:00,
2013-01-03 12:32:00,51.0,49.0,30.50,WNW,292,3.0,7.0,93,0.00,,,0.01,,2013-01-03 12:32:00,
2013-01-03 12:42:00,51.0,49.0,30.50,WNW,292,3.0,7.0,93,0.00,,,0.01,,2013-01-03 12:42:00,
2013-01-03 12:53:00,51.0,49.0,30.50,WNW,292,2.0,7.0,93,0.00,,,0.01,,2013-01-03 12:53:00,
2013-01-03 13:02:00,51.0,49.0,30.50,West,269,2.0,6.0,93,0.00,,,0.01,,2013-01-03 13:02:00,
2013-01-03 13:12:00,51.0,49.0,30.50,West,269,2.0,6.0,93,0.00,,,0.01,,2013-01-03 13:12:00,
2013-01-03 13:22:00,51.0,49.0,30.50,West,269,2.0,6.0,93,0.00,,,0.01,,2013-01-03 13:22:00,
2013-01-03 13:32:00,52.0,50.0,30.50,WNW,296,2.0,6.0,93,0.00,,,0.01,,2013-01-03 13:32:00,
2013-01-03 13:42:00,52.0,50.0,30.50,WNW,296,2.0,6.0,93,0.00,,,0.01,,2013-01-03 13:42:00,
2013-01-03 13:53:00,52.0,50.0,30.50,WNW,293,2.0,6.0,92,0.00,,,0.01,,2013-01-03 13:53:00,
2013-01-03 14:02:00,52.0,50.0,30.51,WNW,298,2.0,9.0,92,0.00,,,0.01,,2013-01-03 14:02:00,
2013-01-03 14:12:00,52.0,50.0,30.51,WNW,298,2.0,9.0,92,0.00,,,0.01,,2013-01-03 14:12:00,
2013-01-03 14:22:00,52.0,50.0,30.51,WNW,298,2.0,9.0,92,0.00,,,0.01,,2013-01-03 14:22:00,
2013-01-03 14:32:00,52.0,50.0,30.52,WNW,292,1.0,8.0,92,0.00,,,0.01,,2013-01-03 14:32:00,
2013-01-03 14:42:00,52.0,50.0,30.52,WNW,292,1.0,8.0,92,0.00,,,0.01,,2013-01-03 14:42:00,
2013-01-03 14:53:00,52.0,50.0,30.52,WNW,291,1.0,3.0,92,0.00,,,0.01,,2013-01-03 14:53:00,
2013-01-03 15:02:00,52.0,50.0,30.52,WNW,291,1.0,3.0,92,0.00,,,0.01,,2013-01-03 15:02:00,
2013-01-03 15:12:00,52.0,50.0,30.52,WNW,288,1.0,4.0,92,0.00,,,0.00,,2013-01-03 15:12:00,
2013-01-03 15:22:00,52.0,50.0,30.52,WNW,288,1.0,4.0,92,0.00,,,0.00,,2013-01-03 15:22:00,
2013-01-03 15:32:00,52.0,50.0,30.53,WNW,295,1.0,7.0,92,0.00,,,0.00,,2013-01-03 15:32:00,
2013-01-03 15:42:00,52.0,50.0,30.53,WNW,295,1.0,7.0,92,0.00,,,0.00,,2013-01-03 15:42:00,
2013-01-03 15:52:00,52.0,50.0,30.53,WNW,288,1.0,4.0,92,0.00,,,0.00,,2013-01-03 15:52:00,
2013-01-03 16:02:00,52.0,50.0,30.53,WNW,288,1.0,4.0,92,0.00,,,0.00,,2013-01-03 16:02:00,
2013-01-03 16:11:00,52.0,50.0,30.53,WNW,288,1.0,4.0,92,0.00,,,0.00,,2013-01-03 16:11:00,
2013-01-03 16:22:00,52.0,50.0,30.54,WNW,289,2.0,6.0,92,0.00,,,0.00,,2013-01-03 16:22:00,
2013-01-03 16:32:00,52.0,50.0,30.53,West,264,2.0,7.0,92,0.00,,,0.00,,2013-01-03 16:32:00,
2013-01-03 16:43:00,52.0,50.0,30.53,West,264,2.0,7.0,92,0.00,,,0.00,,2013-01-03 16:43:00,
2013-01-03 16:52:00,52.0,50.0,30.53,West,264,2.0,7.0,92,0.00,,,0.00,,2013-01-03 16:52:00,
2013-01-03 17:02:00,51.0,49.0,30.53,West,267,1.0,8.0,92,0.00,,,0.00,,2013-01-03 17:02:00,
2013-01-03 17:12:00,51.0,49.0,30.53,West,267,1.0,8.0,92,0.00,,,0.00,,2013-01-03 17:12:00,
2013-01-03 17:22:00,51.0,49.0,30.53,West,267,1.0,8.0,92,0.00,,,0.00,,2013-01-03 17:22:00,
2013-01-03 17:32:00,51.0,49.0,30.55,WNW,299,1.0,4.0,92,0.00,,,0.00,,2013-01-03 17:32:00,
2013-01-03 17:43:00,51.0,49.0,30.55,WNW,299,1.0,4.0,92,0.00,,,0.00,,2013-01-03 17:43:00,
2013-01-03 17:53:00,51.0,49.0,30.55,WNW,299,1.0,4.0,92,0.00,,,0.00,,2013-01-03 17:53:00,
2013-01-03 18:03:00,51.0,49.0,30.56,WNW,288,1.0,5.0,92,0.00,,,0.00,,2013-01-03 18:03:00,
2013-01-03 18:12:00,51.0,49.0,30.56,WNW,288,1.0,5.0,92,0.00,,,0.00,,2013-01-03 18:12:00,
2013-01-03 18:22:00,51.0,49.0,30.57,WNW,286,1.0,5.0,92,0.00,,,0.00,,2013-01-03 18:22:00,
2013-01-03 18:33:00,51.0,49.0,30.57,WNW,286,1.0,5.0,92,0.00,,,0.00,,2013-01-03 18:33:00,
2013-01-03 18:43:00,51.0,49.0,30.57,WNW,286,1.0,5.0,92,0.00,,,0.00,,2013-01-03 18:43:00,
2013-01-03 18:53:00,51.0,49.0,30.56,West,265,1.0,5.0,92,0.00,,,0.00,,2013-01-03 18:53:00,
2013-01-03 19:02:00,51.0,49.0,30.56,West,271,2.0,7.0,93,0.00,,,0.00,,2013-01-03 19:02:00,
2013-01-03 19:12:00,51.0,49.0,30.56,West,271,2.0,7.0,93,0.00,,,0.00,,2013-01-03 19:12:00,
2013-01-03 19:56:00,51.0,49.0,30.57,WNW,290,2.0,8.0,92,0.00,,,0.00,,2013-01-03 19:56:00,
2013-01-03 20:02:00,51.0,49.0,30.57,WNW,294,3.0,8.0,92,0.00,,,0.00,,2013-01-03 20:02:00,
2013-01-03 20:12:00,51.0,49.0,30.57,WNW,294,3.0,8.0,92,0.00,,,0.00,,2013-01-03 20:12:00,
2013-01-03 20:22:00,51.0,49.0,30.57,WNW,294,3.0,8.0,92,0.00,,,0.00,,2013-01-03 20:22:00,
2013-01-03 20:33:00,51.0,49.0,30.56,WNW,286,3.0,8.0,92,0.00,,,0.00,,2013-01-03 20:33:00,
2013-01-03 20:42:00,51.0,49.0,30.56,WNW,286,3.0,8.0,92,0.00,,,0.00,,2013-01-03 20:42:00,
2013-01-03 20:53:00,51.0,49.0,30.57,WNW,291,3.0,8.0,92,0.00,,,0.00,,2013-01-03 20:53:00,
2013-01-03 21:02:00,51.0,49.0,30.58,WNW,295,1.0,4.0,92,0.00,,,0.00,,2013-01-03 21:02:00,
2013-01-03 21:12:00,51.0,49.0,30.58,WNW,295,1.0,4.0,92,0.00,,,0.00,,2013-01-03 21:12:00,
2013-01-03 21:22:00,51.0,49.0,30.58,WNW,295,1.0,4.0,92,0.00,,,0.00,,2013-01-03 21:22:00,
2013-01-03 21:34:00,51.0,49.0,30.58,WNW,295,1.0,4.0,92,0.00,,,0.00,,2013-01-03 21:34:00,
2013-01-03 21:44:00,51.0,49.0,30.58,WNW,295,1.0,4.0,92,0.00,,,0.00,,2013-01-03 21:44:00,
2013-01-03 21:53:00,51.0,49.0,30.58,WNW,302,3.0,7.0,92,0.00,,,0.00,,2013-01-03 21:53:00,
2013-01-03 22:02:00,51.0,49.0,30.58,WNW,302,3.0,7.0,92,0.00,,,0.00,,2013-01-03 22:02:00,
2013-01-03 22:12:00,51.0,49.0,30.58,WNW,302,3.0,7.0,92,0.00,,,0.00,,2013-01-03 22:12:00,
2013-01-03 22:22:00,51.0,49.0,30.60,WNW,301,1.0,5.0,92,0.00,,,0.00,,2013-01-03 22:22:00,
2013-01-03 22:32:00,51.0,49.0,30.60,WNW,285,2.0,6.0,92,0.00,,,0.00,,2013-01-03 22:32:00,
2013-01-03 22:42:00,51.0,49.0,30.60,WNW,285,2.0,6.0,92,0.00,,,0.00,,2013-01-03 22:42:00,
2013-01-03 22:52:00,51.0,49.0,30.59,WNW,294,2.0,5.0,92,0.00,,,0.00,,2013-01-03 22:52:00,
2013-01-03 23:02:00,51.0,49.0,30.59,WNW,294,2.0,5.0,92,0.00,,,0.00,,2013-01-03 23:02:00,
2013-01-03 23:12:00,51.0,49.0,30.59,WNW,294,2.0,5.0,92,0.00,,,0.00,,2013-01-03 23:12:00,
2013-01-03 23:22:00,51.0,49.0,30.60,WNW,292,2.0,6.0,92,0.00,,,0.00,,2013-01-03 23:22:00,
2013-01-03 23:32:00,51.0,49.0,30.60,WNW,295,1.0,5.0,92,0.00,,,0.00,,2013-01-03 23:32:00,
2013-01-03 23:42:00,51.0,49.0,30.60,WNW,295,1.0,5.0,92,0.00,,,0.00,,2013-01-03 23:42:00,
2013-01-03 23:52:00,51.0,49.0,30.60,WNW,295,1.0,5.0,92,0.00,,,0.00,,2013-01-03 23:52:00,